Regional Weather Roundup
Issued by NWS

Home | Current Version | Previous Version | Text Only | Print | Product List | Glossary Off
Versions: 1 2 3 4 5 6 7 8 9 10 11 12 13 14 15 16 17 18 19 20 21 22 23 24 25 26 27 28 29 30 31 32 33 34 35 36 37 38 39 40 41 42 43 44 45 46 47 48 49 50

000
ASUS43 KIND 031159
RWRIN

WEATHER ROUNDUP FOR INDIANA
NATIONAL WEATHER SERVICE INDIANAPOLIS IN
800 AM EDT MON AUG 03 2015

NOTE: "FAIR" INDICATES FEW OR NO CLOUDS BELOW 12,000 FEET WITH NO
SIGNIFICANT WEATHER AND/OR OBSTRUCTIONS TO VISIBILITY.

* - STATION DOES NOT REPORT WEATHER SUCH AS PRECIPITATION OR FOG.

+ - STATION NOT QUALITY CONTROLLED BY THE NATIONAL WEATHER SERVICE.
    USE DATA WITH CAUTION...ESPECIALLY DEWPOINT AND RELATIVE
    HUMIDITY OBSERVATIONS.

INZ001>003-010>013-019-020-031300-
NORTHWEST INDIANA

CITY           SKY/WX    TMP DP  RH WIND       PRES   REMARKS
GARY /AIRPORT/ MOSUNNY   68  66  94 W8        29.82R

$$

LMZ046-743>745-031300-
SOUTHERN LAKE MICHIGAN

STATION/POSITION TIME  TEMP    WIND        PRES    WAVE
                       AIR SEA DIR/SP/G            HT
                 (UTC) (F)     (DEG/KT/KT) (MB)    (FT)
BURNS HARBOR     1100   67     160/  3/  4 1009.5R
MICHIGAN CITY    1100   67     130/  3/  4   N/A
5NW MICH CITY    1100   72 73  310/  6/  8   N/A     2

$$

INZ004-005-014>016-021>024-031300-
NORTH CENTRAL INDIANA

CITY           SKY/WX    TMP DP  RH WIND       PRES   REMARKS
ELKHART        FOG       64  64 100 W5        29.81F VSB 1/4
GOSHEN         CLOUDY    65  63  93 SW3       29.81R
6HR MIN TEMP:  63; 6HR MAX TEMP:  65; 6HR PCP:  0.01;

SOUTH BEND     PTSUNNY   65  63  93 SW5       29.82R FOG
6HR MIN TEMP:  63; 6HR MAX TEMP:  66;


$$

INZ006>009-017-018-025>027-031300-
NORTHEAST INDIANA

CITY           SKY/WX    TMP DP  RH WIND       PRES   REMARKS
ANGOLA *+      PTSUNNY   64  63  94 SW5       29.81R
FORT WAYNE     MOSUNNY   65  63  93 SW8       29.83R
6HR MIN TEMP:  62; 6HR MAX TEMP:  68; 6HR PCP:  0.63;


$$

INZ028-029-035-036-043>045-051>053-031300-
WEST CENTRAL INDIANA

CITY           SKY/WX    TMP DP  RH WIND       PRES   REMARKS
GREENCASTLE +  SUNNY     72  66  83 CALM      29.84R
LAFAYETTE      SUNNY     68  66  93 CALM      29.80R
6HR MIN TEMP:  65; 6HR MAX TEMP:  77; 6HR PCP:  0.06;

TERRE HAUTE    SUNNY     74  71  91 SW6       29.83R
6HR MIN TEMP:  72; 6HR MAX TEMP:  77;


$$

INZ030>032-037>040-046>048-054>057-064-065-031300-
CENTRAL INDIANA

CITY           SKY/WX    TMP DP  RH WIND       PRES   REMARKS
GREENWOOD *+   SUNNY     72  63  73 S10       29.85S
INDIANAPOLIS   MOSUNNY   73  65  75 S10       29.82S
6HR MIN TEMP:  70; 6HR MAX TEMP:  75; 6HR PCP: TRACE;

-EAGLE CREEK   SUNNY     70  66  87 S3        29.83R
6HR MIN TEMP:  66; 6HR MAX TEMP:  76; 6HR PCP:  0.10;

KOKOMO *+      SUNNY     66  63  88 S8        29.82R
6HR MIN TEMP:  64; 6HR MAX TEMP:  75; 6HR PCP:  1.00;

MT COMFORT *+  MOSUNNY   66 N/A N/A S9        29.85R
SHELBYVILLE    SUNNY     69  63  81 SE10      29.85R
6HR MIN TEMP:  67; 6HR MAX TEMP:  73; 6HR PCP:  0.17;


$$

INZ033-034-041-042-049-050-058-059-031300-
EAST CENTRAL INDIANA

CITY           SKY/WX    TMP DP  RH WIND       PRES   REMARKS
MUNCIE         CLOUDY    64  63  96 S9        29.84R
6HR MIN TEMP:  61; 6HR MAX TEMP:  74; 6HR PCP:  0.63;


$$

INZ060-061-067>069-081>083-085>088-031300-
SOUTHWEST INDIANA

CITY           SKY/WX    TMP DP  RH WIND       PRES   REMARKS
EVANSVILLE     MOSUNNY   74  69  85 SW7       29.87R
6HR MIN TEMP:  72; 6HR MAX TEMP:  77;

HUNTINGBURG *+ MOSUNNY   72  64  78 S6        29.87R
6HR MIN TEMP:  70; 6HR MAX TEMP:  72;


$$

INZ062-063-066-070>080-084-089>092-031300-
SOUTH CENTRAL AND SOUTHEAST INDIANA

CITY           SKY/WX    TMP DP  RH WIND       PRES   REMARKS
BLOOMINGTON    SUNNY     74  69  85 SW6       29.86R
6HR MIN TEMP:  72; 6HR MAX TEMP:  75;

MADISON *+     CLOUDY    68  59  73 E15G22    29.94R
SEYMOUR +      CLOUDY    72  64  78 SE10      29.88R

$$



USA.gov is the U.S. government's official web portal to all federal, state and local government web resources and services.